Location: Newark
(47.0847°N, 2.3941°E)
Time: 18:37:58
(UTC+00:00)

N. Korean satellite - Visible Passes

Search period start: 15 October 2019 00:00
Search period end: 25 October 2019 00:00
Orbit: 455 x 508 km, 97.2° (Epoch: 14 October)

Date Brightness Start Highest point End Pass type
(mag) Time Alt. Az. Time Alt. Az. Time Alt. Az.
15 Oct 8.5 05:21:57 10° NNE 05:25:16 35° E 05:28:35 10° SSE visible
15 Oct 9.1 17:33:59 10° SSW 17:36:55 26° W 17:39:53 10° NW visible
16 Oct 9.8 04:57:16 10° NE 04:59:50 18° E 05:02:24 10° SE visible
18 Oct 7.4 05:39:16 10° NNE 05:42:50 58° E 05:46:25 10° S visible
18 Oct 9.9 17:52:14 10° SW 17:54:32 17° W 17:56:50 10° NW visible
19 Oct 8.9 05:14:16 10° NE 05:17:27 29° E 05:20:39 10° SSE visible
19 Oct 8.6 17:25:56 10° SSW 17:29:04 32° W 17:32:13 10° NNW visible
20 Oct 10.1 04:49:45 10° NE 04:51:59 15° E 04:54:14 10° SE visible
21 Oct 10.5 18:11:24 10° WSW 18:12:10 11° W 18:12:56 10° WNW visible
22 Oct 7.9 05:31:28 10° NNE 05:35:00 47° E 05:38:33 10° S visible
22 Oct 9.6 17:43:59 10° SW 17:46:37 20° W 17:49:18 10° NW visible
23 Oct 9.3 05:06:35 10° NE 05:09:35 24° E 05:12:37 10° SSE visible
23 Oct 8.1 17:17:55 10° S 17:21:10 40° W 17:24:29 10° NNW visible
24 Oct 10.2 04:42:20 10° ENE 04:44:05 13° E 04:45:51 10° ESE visible
